OBJECT AE, 62405

Orbit data source: Space-Track

You're viewing an Uncataloged Satellite

Recently launched and/or uncataloged satellites may have evolving metadata. Metadata may include but not limited to: Owner, Maufacturer, Bus, Motor, and Mission.

OBJECT AE, 62405 is a satellite in LEO that was launched on Sat, 21 Dec 2024 UTC launched from the Air Force Western Test Range (AFWTR). Unknown objects in Earth's orbit typically refer to objects detected orbiting the Earth but have not yet been identified or cataloged. These objects could be anything from previously untracked satellites, spent rocket stages, debris from satellite collisions, or even natural meteoroids temporarily captured by Earth's gravity.

Loading next visibility...
OBJECT AE details
Identifier
62405, 2024-247AE
Orbit
LEO
Last TLE update17 hours ago
Origin
Flag of TBDUnknown (US) (TBD)
ManufacturerUnknown (US)
MissionOperational spacecraft
Bus & MotorUnknown
Mass~0 kg wet, ~0 kg dry
Launch date (UTC)
2024-12-21 (2 months ago)
Launch vehicleUnknown
Launch site
Air Force Western Test Range (AFWTR)
Object typeUnknown
Shape & HBRUnknown
Radar Cross SectionSmall (<0.1 m²)

Expand to show TLE details & history

TLE from 17 hours ago
0 OBJECT AE
1 62405U 24247AE  25035.59488941  .00027979  00000-0  12155-2 0  9999
2 62405  44.9904 117.2202 0004715 266.9722  93.0620 15.21865541  6425
Epoch: 2025-02-04T14:16Z
Definitive object data (Epoch: 2025-02-04T14:16:38.445Z)
Latitude0.00006°
Longitude128.06214°
Altitude500.386 km
Speed7.616 km/s
True Right ascension07h 48m 52s
True Declination0° 00' 00"
Sunlit
Object was in full shadow at TLE epoch
Visualization TLE readout
Latitude-0.26311°
Longitude-55.40868°
Altitude500.164 km
Speed7.616 km/s
Apparent Right ascension20h 06m 43s
Apparent Declination-19° 26' 51"
Sunlit
Object is in daylight
Visualization observer readout
Local Sidereal Time08:51:25
Azimuth28.38° NE
Elevation-67.392°
Doppler factor1
Orbital elements
Apogee altitude505.064 km
Perigee altitude498.577 km
Semi-major axis6,879.958 km
Eccentricity0.0004715
Inclination44.9904°
RAAN117.2202°
Arg. of periapsis266.9722°
True anomaly93.11595°
Mean anomaly93.062°
Eccentric anomaly93.08898°
Mean motion3.80333 °/min
BSTAR0.0012155
Orbital period94.65 mins
Loading maneuver chart data...
Loading historical data...
Loading historical data...
Loading historical data...
Loading historical data...
Loading historical data...
Loading historical data...
Loading historical data...

OBJECT AE Visibility forecast

Observer location: undefined°, undefined

Span
Click to sort rows by Start time (UTC) header in descending order
Start Az.
Max El. time (UTC)
Max El. Az.
Max El.
End time (UTC)
End Az.
5 mins2025-02-05 07:47:11.110Z189.802° SSW2025-02-05 07:49:11.110Z154.065° SSE21.243°2025-02-05 07:52:11.110Z94.137° ESE
6 mins2025-02-05 09:26:11.110Z253.999° W2025-02-05 09:28:11.110Z283.058° WNW42.898°2025-02-05 09:32:11.110Z64.741° ENE
5 mins2025-02-05 11:06:11.110Z302.601° NW2025-02-05 11:08:11.110Z1.763° NNE31.674°2025-02-05 11:11:11.110Z63.32° ENE
6 mins2025-02-05 12:45:11.110Z303.887° NW2025-02-05 12:47:11.110Z345.952° N36.808°2025-02-05 12:51:11.110Z92.101° ESE
6 mins2025-02-05 14:24:11.110Z277.875° WNW2025-02-05 14:27:11.110Z195.205° SSW33.654°2025-02-05 14:30:11.110Z141.636° SSE
|